Welcome to Northern Hawkes Bay. New Zealand.
PWS Header
      nz Flag



Hit Counter


W3C Valid W3C Valid logo


    Wairoa

Select any of the Stations below to visit their websites.










Historic Data from Weather Underground
Select the location of interest below. Wairoa is the default. Please have patience, this Data is slow to load in.
Northern Hawkes Bay Historical Data
Daily Summary for January 19, 2017 Units:  English    Metric   Both
« Previous Day
Next Day »
Daily Weekly Monthly Yearly Custom
  High: Low: Average:
Temperature: 81 °F 60.4 °F 71.4 °F
Dew Point: 58.3 °F 37.6 °F 49.6 °F
Humidity: 64% 24% 48%
Wind Speed: 25.9mph 0.7mph 10.7mph
Wind Gust: 38mph - -
Wind- - WNW
Pressure: 29.6 in 29.2 in -
Precipitation: 0 in    
Historical Graphs
 
 
Tabular Data for January 19, 2017
Time Temperature Dew Point Pressure Wind Wind Speed Wind Gust Humidity Rainfall Rate (Hourly) solar
00:04 71.1 °F 51.4 °F 29.6 in North 6.9 mph 13 mph 50% 0 in 0 W/m2
00:09 71.1 °F 51.4 °F 29.6 in North 5.4 mph 13 mph 50% 0 in 0 W/m2
00:14 71.1 °F 51.4 °F 29.6 in North 8.3 mph 13 mph 50% 0 in 0 W/m2
00:19 71.1 °F 51.4 °F 29.6 in NNW 4.5 mph 15.2 mph 50% 0 in 0 W/m2
00:24 70.9 °F 52 °F 29.6 in North 9.2 mph 15.2 mph 51% 0 in 0 W/m2
00:29 71.1 °F 52 °F 29.6 in NNE 3.8 mph 13.6 mph 51% 0 in 0 W/m2
00:34 70.5 °F 52.2 °F 29.6 in NNE 7.6 mph 13 mph 52% 0 in 0 W/m2
00:39 70.5 °F 52.5 °F 29.6 in North 5.4 mph 13 mph 53% 0 in 0 W/m2
00:44 70.9 °F 52.9 °F 29.6 in North 6.9 mph 13 mph 53% 0 in 0 W/m2
00:49 70.9 °F 52.9 °F 29.6 in NNE 7.6 mph 15.2 mph 53% 0 in 0 W/m2
00:54 70.9 °F 53.4 °F 29.6 in North 7.6 mph 19.7 mph 54% 0 in 0 W/m2
00:59 70.5 °F 53.1 °F 29.5 in North 6 mph 19.7 mph 54% 0 in 0 W/m2
01:04 70.3 °F 53.4 °F 29.5 in NNE 6.9 mph 16.8 mph 55% 0 in 0 W/m2
01:09 70.2 °F 53.8 °F 29.5 in North 9.8 mph 16.8 mph 56% 0 in 0 W/m2
01:14 70 °F 54.1 °F 29.5 in North 9.8 mph 15.9 mph 57% 0 in 0 W/m2
01:19 70 °F 54.1 °F 29.5 in NNW 9.2 mph 15.9 mph 57% 0 in 0 W/m2
01:24 69.8 °F 54.3 °F 29.5 in NNW 6 mph 15.9 mph 58% 0 in 0 W/m2
01:29 69.6 °F 54.7 °F 29.5 in North 9.2 mph 15.2 mph 59% 0 in 0 W/m2
01:34 69.4 °F 55 °F 29.5 in North 7.6 mph 15.2 mph 60% 0 in 0 W/m2
01:39 69.4 °F 55.4 °F 29.5 in North 7.6 mph 15.2 mph 61% 0 in 0 W/m2
01:44 69.3 °F 55.8 °F 29.5 in North 7.6 mph 14.5 mph 62% 0 in 0 W/m2
01:49 69.3 °F 55.8 °F 29.5 in North 12.1 mph 20.6 mph 62% 0 in 0 W/m2
01:54 69.3 °F 55.2 °F 29.5 in NNW 13 mph 21.3 mph 61% 0 in 0 W/m2
01:59 69.3 °F 55.8 °F 29.5 in NNW 9.8 mph 21.3 mph 62% 0 in 0 W/m2
02:04 69.1 °F 55.6 °F 29.5 in North 15.2 mph 24.4 mph 62% 0 in 0 W/m2
02:09 69.3 °F 55.2 °F 29.5 in North 12.1 mph 24.4 mph 61% 0 in 0 W/m2
02:14 69.3 °F 55.2 °F 29.5 in NNW 11.4 mph 22.1 mph 61% 0 in 0 W/m2
02:19 69.3 °F 55.2 °F 29.5 in NNW 11.4 mph 20.6 mph 61% 0 in 0 W/m2
02:24 69.4 °F 55.4 °F 29.5 in NNW 7.6 mph 17.4 mph 61% 0 in 0 W/m2
02:29 69.3 °F 55.8 °F 29.5 in NNW 6.9 mph 17.4 mph 62% 0 in 0 W/m2
02:34 69.3 °F 55.8 °F 29.5 in NNW 13.6 mph 19 mph 62% 0 in 0 W/m2
02:39 69.8 °F 55.2 °F 29.5 in NNW 19 mph 25.9 mph 60% 0 in 0 W/m2
02:44 69.8 °F 54.9 °F 29.5 in NNW 12.1 mph 25.9 mph 59% 0 in 0 W/m2
02:49 69.6 °F 55 °F 29.5 in NNW 13 mph 25.9 mph 60% 0 in 0 W/m2
02:54 69.4 °F 55 °F 29.5 in North 13.6 mph 21.3 mph 60% 0 in 0 W/m2
02:59 69.4 °F 55 °F 29.5 in North 17.4 mph 24.4 mph 60% 0 in 0 W/m2
03:04 69.3 °F 55.2 °F 29.5 in North 15.9 mph 24.4 mph 61% 0 in 0 W/m2
03:09 69.1 °F 54.7 °F 29.5 in NNW 15.2 mph 20.6 mph 60% 0 in 0 W/m2
03:14 69.3 °F 54.3 °F 29.5 in NNW 13.6 mph 23.5 mph 59% 0 in 0 W/m2
03:19 69.1 °F 54.1 °F 29.5 in NNW 13 mph 23.5 mph 59% 0 in 0 W/m2
03:24 69.1 °F 54.1 °F 29.5 in NNW 13 mph 22.1 mph 59% 0 in 0 W/m2
03:29 69.1 °F 54.1 °F 29.5 in North 11.4 mph 22.1 mph 59% 0 in 0 W/m2
03:34 69.1 °F 54.1 °F 29.5 in NNW 13 mph 22.1 mph 59% 0 in 0 W/m2
03:39 69.1 °F 54.1 °F 29.5 in NW 14.5 mph 24.4 mph 59% 0 in 0 W/m2
03:55 69.3 °F 54.3 °F 29.5 in NNW 12.1 mph 25.9 mph 59% 0 in 0 W/m2
04:00 69.1 °F 54.7 °F 29.5 in NW 12.1 mph 25.9 mph 60% 0 in 0 W/m2
04:05 69.1 °F 54.7 °F 29.5 in NW 14.5 mph 25.1 mph 60% 0 in 0 W/m2
04:10 69.1 °F 55 °F 29.5 in NW 13 mph 25.1 mph 61% 0 in 0 W/m2
04:15 68.7 °F 54.9 °F 29.5 in NNW 14.5 mph 25.1 mph 61% 0 in 0 W/m2
04:20 68.7 °F 54.9 °F 29.4 in NNW 19.7 mph 30.4 mph 61% 0 in 0 W/m2
04:27 68.7 °F 55.2 °F 29.4 in NNW 17.4 mph 30.4 mph 62% 0 in 0 W/m2
04:35 68.7 °F 55.2 °F 29.4 in NNW 17.4 mph 25.1 mph 62% 0 in 0 W/m2
04:40 68.5 °F 55 °F 29.4 in NNW 15.2 mph 25.1 mph 62% 0 in 0 W/m2
04:46 68.4 °F 55.2 °F 29.4 in NNW 9.2 mph 23.5 mph 63% 0 in 0 W/m2
04:51 68.2 °F 55 °F 29.4 in NW 8.3 mph 19 mph 63% 0 in 0 W/m2
04:56 68.2 °F 55 °F 29.4 in NW 9.2 mph 17.4 mph 63% 0 in 0 W/m2
05:02 67.8 °F 55.2 °F 29.4 in NNW 9.2 mph 17.4 mph 64% 0 in 0 W/m2
05:08 68 °F 55 °F 29.4 in North 13 mph 16.8 mph 63% 0 in 0 W/m2
05:14 68.2 °F 55 °F 29.4 in North 7.6 mph 16.8 mph 63% 0 in 0 W/m2
05:19 68.2 °F 55 °F 29.4 in North 9.2 mph 17.4 mph 63% 0 in 0 W/m2
05:24 68 °F 55.4 °F 29.4 in NNW 6.9 mph 18.3 mph 64% 0 in 0 W/m2
05:29 68 °F 55.4 °F 29.4 in North 6.9 mph 19.7 mph 64% 0 in 0 W/m2
05:34 68 °F 55 °F 29.4 in North 16.8 mph 23.5 mph 63% 0 in 0 W/m2
05:39 68.4 °F 54.9 °F 29.4 in NNW 14.5 mph 33.6 mph 62% 0 in 0 W/m2
05:44 68.4 °F 54.3 °F 29.4 in NNW 18.3 mph 33.6 mph 61% 0 in 0 W/m2
05:49 68.4 °F 54.3 °F 29.4 in NNW 12.1 mph 33.6 mph 61% 0 in 0 W/m2
05:54 68.2 °F 53.8 °F 29.4 in NNW 13 mph 27.3 mph 60% 0 in 0 W/m2
05:59 68.2 °F 53.8 °F 29.4 in NNW 12.1 mph 25.9 mph 60% 0 in 0 W/m2
06:04 68.2 °F 53.2 °F 29.4 in North 14.5 mph 25.9 mph 59% 0 in 0 W/m2
06:09 68.4 °F 53.1 °F 29.4 in North 14.5 mph 25.9 mph 58% 0 in 0 W/m2
06:14 68.2 °F 52.9 °F 29.4 in North 14.5 mph 25.9 mph 58% 0 in 2 W/m2
06:19 68.4 °F 52.5 °F 29.4 in North 12.1 mph 25.9 mph 57% 0 in 5 W/m2
06:24 68.2 °F 52.9 °F 29.4 in NNW 8.3 mph 25.9 mph 58% 0 in 5 W/m2
06:29 68.2 °F 52.9 °F 29.4 in NNW 10.7 mph 20.6 mph 58% 0 in 4 W/m2
06:34 68 °F 53.2 °F 29.4 in North 8.3 mph 20.6 mph 59% 0 in 5 W/m2
06:39 67.8 °F 54 °F 29.4 in North 7.6 mph 16.8 mph 61% 0 in 7 W/m2
06:44 67.6 °F 53.8 °F 29.4 in North 9.2 mph 18.3 mph 61% 0 in 8 W/m2
06:49 67.6 °F 53.2 °F 29.4 in North 8.3 mph 18.3 mph 60% 0 in 13 W/m2
06:54 67.5 °F 53.1 °F 29.4 in North 8.3 mph 15.9 mph 60% 0 in 13 W/m2
06:59 67.5 °F 53.1 °F 29.4 in North 9.8 mph 15.9 mph 60% 0 in 16 W/m2
07:04 67.8 °F 52.2 °F 29.4 in North 6 mph 20.6 mph 57% 0 in 16 W/m2
07:09 67.8 °F 52.2 °F 29.4 in NNW 5.4 mph 20.6 mph 57% 0 in 23 W/m2
07:14 67.8 °F 51.6 °F 29.4 in North 6.9 mph 13 mph 56% 0 in 23 W/m2
07:19 68 °F 51.3 °F 29.4 in North 6 mph 12.1 mph 55% 0 in 22 W/m2
07:24 67.8 °F 51.6 °F 29.4 in North 7.6 mph 12.1 mph 56% 0 in 26 W/m2
07:29 68.2 °F 50.4 °F 29.4 in North 14.5 mph 23.5 mph 53% 0 in 40 W/m2
07:34 68.7 °F 49.8 °F 29.4 in NNW 19.7 mph 28.2 mph 51% 0 in 65 W/m2
07:39 68.7 °F 50.4 °F 29.4 in NNW 14.5 mph 28.2 mph 52% 0 in 80 W/m2
07:44 68.7 °F 50.9 °F 29.4 in NNW 11.4 mph 25.9 mph 53% 0 in 86 W/m2
07:49 68.5 °F 50.7 °F 29.4 in NNW 8.3 mph 25.9 mph 53% 0 in 76 W/m2
07:54 68.5 °F 50.7 °F 29.4 in North 15.9 mph 26.6 mph 53% 0 in 74 W/m2
07:59 68.4 °F 51.1 °F 29.4 in North 18.3 mph 26.6 mph 54% 0 in 82 W/m2
08:04 68.4 °F 50.5 °F 29.4 in NNW 15.2 mph 26.6 mph 53% 0 in 74 W/m2
08:09 68.5 °F 50.7 °F 29.4 in NNW 6 mph 25.1 mph 53% 0 in 58 W/m2
08:14 68.5 °F 49.3 °F 29.4 in North 11.4 mph 22.1 mph 50% 0 in 46 W/m2
08:19 68.7 °F 48.7 °F 29.4 in NNW 9.8 mph 22.1 mph 49% 0 in 45 W/m2
08:24 68.7 °F 48.7 °F 29.4 in NNW 11.4 mph 22.1 mph 49% 0 in 52 W/m2
08:29 68.7 °F 48.7 °F 29.4 in NNW 8.3 mph 19.7 mph 49% 0 in 55 W/m2
08:34 68.5 °F 49.3 °F 29.4 in NNW 8.3 mph 18.3 mph 50% 0 in 56 W/m2
08:39 68.5 °F 49.3 °F 29.4 in NNW 8.3 mph 17.4 mph 50% 0 in 57 W/m2
08:44 68.4 °F 50.2 °F 29.3 in NNW 3.8 mph 17.4 mph 52% 0 in 52 W/m2
08:49 68.2 °F 48.9 °F 29.3 in North 12.1 mph 15.2 mph 50% 0 in 50 W/m2
08:54 68.5 °F 46.9 °F 29.3 in North 5.4 mph 20.6 mph 46% 0 in 55 W/m2
08:59 68.5 °F 47.5 °F 29.3 in NNW 11.4 mph 20.6 mph 47% 0 in 56 W/m2
09:04 68.5 °F 47.5 °F 29.3 in NNW 7.6 mph 16.8 mph 47% 0 in 58 W/m2
09:09 68.5 °F 47.5 °F 29.3 in NNW 3.8 mph 16.8 mph 47% 0 in 70 W/m2
09:14 68.5 °F 48.6 °F 29.3 in North 0.7 mph 14.5 mph 49% 0 in 87 W/m2
09:19 68.5 °F 48.6 °F 29.3 in NE 6 mph 11.4 mph 49% 0 in 93 W/m2
09:24 68.5 °F 49.3 °F 29.3 in NNE 3.1 mph 11.4 mph 50% 0 in 89 W/m2
09:29 68.4 °F 48.9 °F 29.3 in NNE 7.6 mph 17.4 mph 50% 0 in 89 W/m2
09:34 68.5 °F 49.3 °F 29.3 in NNE 9.2 mph 17.4 mph 50% 0 in 94 W/m2
09:39 68.5 °F 49.3 °F 29.3 in NNE 9.2 mph 13.6 mph 50% 0 in 96 W/m2
09:44 68.7 °F 48.4 °F 29.3 in North 9.8 mph 18.3 mph 48% 0 in 126 W/m2
09:49 69.1 °F 48.6 °F 29.3 in North 17.4 mph 22.8 mph 48% 0 in 163 W/m2
09:54 69.6 °F 48.6 °F 29.3 in North 7.6 mph 22.8 mph 47% 0 in 179 W/m2
09:59 70.2 °F 48.4 °F 29.3 in NNW 8.3 mph 16.8 mph 46% 0 in 222 W/m2
10:04 70.7 °F 48.9 °F 29.3 in NNW 8.3 mph 16.8 mph 46% 0 in 255 W/m2
10:09 71.2 °F 49.5 °F 29.3 in NNW 9.8 mph 14.5 mph 46% 0 in 237 W/m2
10:14 71.6 °F 48.6 °F 29.3 in North 8.3 mph 14.5 mph 44% 0 in 247 W/m2
10:19 71.8 °F 48.7 °F 29.3 in NNE 6.9 mph 13.6 mph 44% 0 in 253 W/m2
10:25 72.3 °F 49.3 °F 29.3 in NNE 4.5 mph 13.6 mph 44% 0 in 250 W/m2
10:30 72.7 °F 48.4 °F 29.3 in North 7.6 mph 15.2 mph 42% 0 in 266 W/m2
10:36 73.2 °F 46.8 °F 29.3 in North 12.1 mph 22.1 mph 39% 0 in 254 W/m2
10:41 73.4 °F 46.9 °F 29.2 in NNW 15.2 mph 22.1 mph 39% 0 in 266 W/m2
10:46 73.6 °F 47.1 °F 29.3 in NNW 11.4 mph 22.1 mph 39% 0 in 290 W/m2
11:04 74.1 °F 50.2 °F 29.2 in NNW 9.2 mph 25.1 mph 43% 0 in 314 W/m2
11:09 74.3 °F 51.6 °F 29.2 in NNW 13 mph 20.6 mph 45% 0 in 293 W/m2
11:14 74.7 °F 50.2 °F 29.2 in North 9.2 mph 20.6 mph 42% 0 in 520 W/m2
11:19 75 °F 51.1 °F 29.2 in North 7.6 mph 20.6 mph 43% 0 in 408 W/m2
11:24 75.7 °F 50.4 °F 29.2 in North 4.5 mph 14.5 mph 41% 0 in 638 W/m2
11:29 77.4 °F 50.5 °F 29.2 in North 7.6 mph 11.4 mph 39% 0 in 1075 W/m2
11:34 79.3 °F 49.3 °F 29.2 in NE 4.5 mph 11.4 mph 35% 0 in 1090 W/m2
11:39 79.3 °F 48.6 °F 29.2 in NNE 3.8 mph 12.1 mph 34% 0 in 1074 W/m2
11:44 79.5 °F 48.7 °F 29.2 in NNE 3.8 mph 18.3 mph 34% 0 in 745 W/m2
11:49 80.2 °F 49.5 °F 29.2 in NNE 5.4 mph 18.3 mph 34% 0 in 591 W/m2
11:54 79.7 °F 53.2 °F 29.2 in North 15.9 mph 22.1 mph 40% 0 in 720 W/m2
11:56 79.5 °F 54.5 °F 29.2 in NNW 12.1 mph 22.1 mph 42% 0 in 488 W/m2
12:01 80.8 °F 54.9 °F 29.2 in NNW 16.8 mph 24.4 mph 41% 0 in 1252 W/m2
12:06 80.4 °F 55.2 °F 29.2 in NNW 14.5 mph 31.1 mph 42% 0 in 411 W/m2
12:11 80.1 °F 56.1 °F 29.2 in NNW 13.6 mph 31.1 mph 44% 0 in 414 W/m2
12:16 79.5 °F 55.8 °F 29.2 in NNW 17.4 mph 27.3 mph 44% 0 in 802 W/m2
12:21 79.2 °F 55.9 °F 29.2 in NNW 20.6 mph 30.4 mph 45% 0 in 621 W/m2
12:26 78.8 °F 55.8 °F 29.2 in NNW 16.8 mph 36.5 mph 45% 0 in 458 W/m2
12:31 78.1 °F 56.1 °F 29.2 in NNW 19.7 mph 36.5 mph 47% 0 in 458 W/m2
12:36 78.4 °F 57.2 °F 29.2 in NNW 19.7 mph 29.8 mph 48% 0 in 458 W/m2
12:41 77.9 °F 57.2 °F 29.2 in NW 12.1 mph 31.1 mph 49% 0 in 569 W/m2
12:46 77.7 °F 56.5 °F 29.2 in NW 16.8 mph 31.1 mph 48% 0 in 494 W/m2
12:51 77.4 °F 56.7 °F 29.2 in NNW 24.4 mph 28.9 mph 49% 0 in 595 W/m2
12:56 77.7 °F 57.6 °F 29.2 in North 17.4 mph 32.7 mph 50% 0 in 635 W/m2
13:01 77.5 °F 57.6 °F 29.2 in NNW 17.4 mph 34.9 mph 50% 0 in 592 W/m2
13:06 77 °F 57.6 °F 29.2 in NNW 25.1 mph 34.9 mph 51% 0.01 in 454 W/m2
13:11 77 °F 57.6 °F 29.2 in NW 24.4 mph 35.8 mph 51% 0.01 in 358 W/m2
13:16 76.5 °F 58.1 °F 29.2 in NW 15.2 mph 35.8 mph 53% 0.01 in 559 W/m2
13:21 77.7 °F 57.6 °F 29.2 in NNW 16.8 mph 33.6 mph 50% 0.01 in 418 W/m2
13:26 77.2 °F 57.7 °F 29.2 in NNW 15.9 mph 28.2 mph 51% 0.01 in 486 W/m2
13:31 77.2 °F 58.3 °F 29.2 in NNW 19 mph 29.8 mph 52% 0.01 in 855 W/m2
13:36 77.5 °F 57.9 °F 29.2 in NNW 22.8 mph 34.2 mph 51% 0.01 in 877 W/m2
13:41 77.7 °F 57.6 °F 29.2 in NNW 13.6 mph 34.2 mph 50% 0.01 in 337 W/m2
13:46 76.1 °F 57.7 °F 29.2 in NNW 14.5 mph 38 mph 53% 0.01 in 439 W/m2
13:51 76.1 °F 58.3 °F 29.2 in NNW 15.9 mph 38 mph 54% 0.01 in 510 W/m2
13:56 76.6 °F 57.7 °F 29.2 in NNW 15.2 mph 32.7 mph 52% 0.01 in 1002 W/m2
14:01 77.7 °F 57 °F 29.2 in NNW 24.4 mph 36.5 mph 49% 0.01 in 1124 W/m2
14:06 77.5 °F 56.8 °F 29.2 in NW 20.6 mph 36.5 mph 49% 0 in 238 W/m2
14:11 77.5 °F 56.8 °F 29.2 in NW 17.4 mph 29.8 mph 49% 0 in 300 W/m2
14:16 77.2 °F 56.7 °F 29.2 in NW 25.9 mph 31.1 mph 49% 0 in 417 W/m2
14:21 77.4 °F 56.7 °F 29.2 in NNW 20.6 mph 31.1 mph 49% 0 in 257 W/m2
14:26 76.8 °F 57.4 °F 29.2 in NW 17.4 mph 32 mph 51% 0 in 296 W/m2
14:31 76.8 °F 56.8 °F 29.2 in NW 21.3 mph 33.6 mph 50% 0 in 240 W/m2
14:36 76.5 °F 56.5 °F 29.2 in NNW 19.7 mph 33.6 mph 50% 0 in 343 W/m2
14:41 76.5 °F 56.5 °F 29.2 in NNW 22.1 mph 33.6 mph 50% 0 in 195 W/m2
14:46 76.5 °F 56.5 °F 29.2 in NNW 17.4 mph 30.4 mph 50% 0 in 222 W/m2
14:51 76.8 °F 56.8 °F 29.2 in NNW 17.4 mph 29.8 mph 50% 0 in 287 W/m2
14:56 76.8 °F 56.8 °F 29.2 in NW 18.3 mph 29.8 mph 50% 0 in 345 W/m2
15:01 77 °F 56.5 °F 29.2 in NW 13 mph 26.6 mph 49% 0 in 341 W/m2
15:06 77 °F 56.5 °F 29.2 in NW 13 mph 26.6 mph 49% 0 in 632 W/m2
15:11 77.7 °F 57 °F 29.2 in NNW 9.8 mph 22.8 mph 49% 0 in 318 W/m2
15:16 77.2 °F 56.7 °F 29.2 in NNW 11.4 mph 22.8 mph 49% 0 in 216 W/m2
15:21 77 °F 57 °F 29.2 in NNW 14.5 mph 21.3 mph 50% 0 in 157 W/m2
15:26 76.1 °F 57.2 °F 29.2 in NNW 11.4 mph 22.1 mph 52% 0 in 181 W/m2
15:31 75.9 °F 57.6 °F 29.2 in NNW 9.8 mph 22.1 mph 53% 0 in 117 W/m2
15:36 75.9 °F 57.6 °F 29.2 in NNW 9.2 mph 17.4 mph 53% 0 in 145 W/m2
15:41 76.1 °F 57.7 °F 29.2 in NNW 7.6 mph 15.2 mph 53% 0 in 220 W/m2
15:46 76.5 °F 58.1 °F 29.2 in NNW 8.3 mph 15.2 mph 53% 0 in 409 W/m2
15:51 77.2 °F 55.4 °F 29.2 in WNW 13 mph 28.2 mph 47% 0 in 163 W/m2
15:56 76.5 °F 54.1 °F 29.2 in WNW 6.9 mph 28.2 mph 46% 0 in 264 W/m2
16:01 76.6 °F 52.5 °F 29.2 in WNW 9.8 mph 23.5 mph 43% 0 in 626 W/m2
16:06 78.6 °F 50.9 °F 29.2 in WNW 11.4 mph 20.6 mph 38% 0 in 747 W/m2
16:11 79.5 °F 48.7 °F 29.2 in WNW 12.1 mph 20.6 mph 34% 0 in 825 W/m2
16:16 79.5 °F 48.7 °F 29.2 in NW 11.4 mph 26.6 mph 34% 0 in 301 W/m2
16:21 78.1 °F 48.9 °F 29.3 in NW 6.9 mph 26.6 mph 36% 0 in 698 W/m2
16:26 77.9 °F 50.4 °F 29.3 in WNW 3.8 mph 22.8 mph 38% 0 in 831 W/m2
16:31 79.5 °F 50.4 °F 29.3 in WNW 3.8 mph 18.3 mph 36% 0 in 721 W/m2
16:36 81 °F 48.4 °F 29.3 in NW 4.5 mph 14.5 mph 32% 0 in 680 W/m2
16:41 80.1 °F 47.7 °F 29.3 in NNW 6.9 mph 18.3 mph 32% 0 in 641 W/m2
16:46 80.8 °F 45.7 °F 29.3 in NNW 7.6 mph 18.3 mph 29% 0 in 616 W/m2
16:51 79.9 °F 45.7 °F 29.3 in NW 3.8 mph 15.9 mph 30% 0 in 583 W/m2
16:56 80.1 °F 43.2 °F 29.3 in NW 11.4 mph 17.4 mph 27% 0 in 562 W/m2
17:01 78.1 °F 39.4 °F 29.3 in NW 17.4 mph 25.1 mph 25% 0 in 530 W/m2
17:06 77.5 °F 39.9 °F 29.3 in NW 14.5 mph 25.1 mph 26% 0 in 524 W/m2
17:11 77 °F 37.6 °F 29.3 in NW 12.1 mph 25.9 mph 24% 0 in 503 W/m2
17:16 76.8 °F 38.5 °F 29.3 in NW 9.2 mph 25.9 mph 25% 0 in 489 W/m2
17:21 77.4 °F 38.8 °F 29.3 in NW 7.6 mph 19.7 mph 25% 0 in 469 W/m2
17:26 77.5 °F 39.9 °F 29.3 in NNW 13 mph 19.7 mph 26% 0 in 459 W/m2
17:31 77.5 °F 39.9 °F 29.3 in NW 9.2 mph 15.9 mph 26% 0 in 443 W/m2
17:36 76.6 °F 39.2 °F 29.3 in NNW 7.6 mph 18.3 mph 26% 0 in 429 W/m2
17:41 77.5 °F 39.9 °F 29.3 in NNW 10.7 mph 18.3 mph 26% 0 in 420 W/m2
17:46 76.6 °F 39.2 °F 29.3 in NW 9.2 mph 20.6 mph 26% 0 in 400 W/m2
17:51 76.1 °F 38.8 °F 29.3 in WNW 8.3 mph 20.6 mph 26% 0 in 384 W/m2
17:56 76.8 °F 40.3 °F 29.3 in NW 12.1 mph 18.3 mph 27% 0 in 373 W/m2
18:01 77.2 °F 39.7 °F 29.3 in NW 9.8 mph 18.3 mph 26% 0 in 362 W/m2
18:06 76.1 °F 39.7 °F 29.3 in NW 9.8 mph 19 mph 27% 0 in 347 W/m2
18:11 75.9 °F 40.5 °F 29.3 in NW 7.6 mph 19 mph 28% 0 in 331 W/m2
18:16 76.3 °F 41.7 °F 29.3 in NW 13 mph 19 mph 29% 0 in 311 W/m2
18:21 76.3 °F 42.6 °F 29.3 in NW 6.9 mph 16.8 mph 30% 0 in 295 W/m2
18:27 76.1 °F 41.5 °F 29.3 in NW 9.8 mph 18.3 mph 29% 0 in 277 W/m2
18:32 75.4 °F 40.8 °F 29.3 in NW 6.9 mph 19 mph 29% 0 in 269 W/m2
18:37 75.2 °F 40.8 °F 29.3 in NW 9.8 mph 19 mph 29% 0 in 259 W/m2
18:42 74.5 °F 42.6 °F 29.3 in NW 11.4 mph 22.8 mph 32% 0 in 248 W/m2
18:47 74.1 °F 40.6 °F 29.3 in NW 13.6 mph 22.8 mph 30% 0 in 228 W/m2
18:52 73.8 °F 39.6 °F 29.3 in NW 11.4 mph 22.8 mph 29% 0 in 219 W/m2
18:57 74.1 °F 40.6 °F 29.3 in NNW 13.6 mph 21.3 mph 30% 0 in 147 W/m2
19:02 72.7 °F 40.3 °F 29.3 in NNW 13.6 mph 24.4 mph 31% 0 in 58 W/m2
19:07 71.8 °F 39.6 °F 29.3 in NW 13.6 mph 26.6 mph 31% 0 in 54 W/m2
19:12 71.6 °F 39.4 °F 29.3 in NW 11.4 mph 26.6 mph 31% 0 in 60 W/m2
19:17 71.4 °F 40.1 °F 29.3 in NNW 10.7 mph 22.1 mph 32% 0 in 57 W/m2
19:22 71.2 °F 39 °F 29.3 in NNW 13 mph 22.8 mph 31% 0 in 130 W/m2
19:27 72 °F 37.9 °F 29.3 in NNW 10.7 mph 22.8 mph 29% 0 in 129 W/m2
19:32 71.6 °F 38.7 °F 29.3 in NW 12.1 mph 21.3 mph 30% 0 in 48 W/m2
19:37 70.9 °F 39.6 °F 29.3 in NNW 9.8 mph 19 mph 32% 0 in 69 W/m2
19:42 70.5 °F 38.5 °F 29.3 in NNW 12.1 mph 19 mph 31% 0 in 97 W/m2
19:47 70.9 °F 38.8 °F 29.3 in NNW 9.2 mph 17.4 mph 31% 0 in 95 W/m2
19:52 70.9 °F 39.6 °F 29.3 in NW 7.6 mph 17.4 mph 32% 0 in 83 W/m2
19:57 70.5 °F 39.4 °F 29.3 in NW 8.3 mph 16.8 mph 32% 0 in 71 W/m2
20:02 70.5 °F 39.4 °F 29.3 in NW 11.4 mph 15.9 mph 32% 0 in 59 W/m2
20:07 70.2 °F 39 °F 29.3 in NW 6.9 mph 15.2 mph 32% 0 in 46 W/m2
20:13 70 °F 39.6 °F 29.3 in NNW 4.5 mph 15.9 mph 33% 0 in 33 W/m2
20:18 69.3 °F 39.7 °F 29.3 in NW 4.5 mph 15.9 mph 34% 0 in 14 W/m2
20:23 68.5 °F 39.7 °F 29.3 in NW 5.4 mph 13 mph 35% 0 in 11 W/m2
20:28 68 °F 40.1 °F 29.3 in NW 5.4 mph 10.7 mph 36% 0 in 7 W/m2
20:33 67.6 °F 40.5 °F 29.3 in NW 9.2 mph 15.2 mph 37% 0 in 4 W/m2
20:38 67.6 °F 40.5 °F 29.3 in NW 11.4 mph 20.6 mph 37% 0 in 2 W/m2
20:43 67.5 °F 40.3 °F 29.3 in NW 9.2 mph 20.6 mph 37% 0 in 0 W/m2
20:48 67.1 °F 39.9 °F 29.3 in NW 15.2 mph 20.6 mph 37% 0 in 0 W/m2
20:53 67.1 °F 39.9 °F 29.3 in NW 9.2 mph 21.3 mph 37% 0 in 0 W/m2
20:58 66.9 °F 40.5 °F 29.3 in NW 9.8 mph 21.3 mph 38% 0 in 0 W/m2
21:03 66.7 °F 40.3 °F 29.4 in WNW 8.3 mph 19 mph 38% 0 in 0 W/m2
21:08 66.6 °F 40.3 °F 29.3 in WNW 11.4 mph 18.3 mph 38% 0 in 0 W/m2
21:13 66.6 °F 40.3 °F 29.4 in NW 9.2 mph 19 mph 38% 0 in 0 W/m2
21:33 66 °F 41.7 °F 29.4 in NW 6 mph 19.7 mph 41% 0 in 0 W/m2
21:38 65.7 °F 42.1 °F 29.4 in NW 6.9 mph 17.4 mph 42% 0 in 0 W/m2
21:43 65.5 °F 41.7 °F 29.4 in NNW 8.3 mph 16.8 mph 42% 0 in 0 W/m2
21:48 65.5 °F 42.4 °F 29.4 in North 11.4 mph 16.8 mph 43% 0 in 0 W/m2
21:53 65.3 °F 42.8 °F 29.4 in NNW 7.6 mph 15.2 mph 44% 0 in 0 W/m2
21:58 65.1 °F 43.3 °F 29.4 in NW 9.2 mph 16.8 mph 45% 0 in 0 W/m2
22:03 65.1 °F 43.3 °F 29.4 in NNW 8.3 mph 16.8 mph 45% 0 in 0 W/m2
22:08 64.9 °F 43.2 °F 29.4 in NNW 7.6 mph 21.3 mph 45% 0 in 0 W/m2
22:13 64.9 °F 43.7 °F 29.4 in NNW 11.4 mph 21.3 mph 46% 0 in 0 W/m2
22:18 64.8 °F 43.5 °F 29.4 in NW 5.4 mph 18.3 mph 46% 0 in 0 W/m2
22:23 64.2 °F 43 °F 29.4 in NW 3.8 mph 13.6 mph 46% 0 in 0 W/m2
22:28 63.9 °F 43.3 °F 29.4 in NW 5.4 mph 9.2 mph 47% 0 in 0 W/m2
22:33 63.7 °F 43.5 °F 29.4 in NW 3.1 mph 9.2 mph 48% 0 in 0 W/m2
22:38 63.3 °F 43.9 °F 29.4 in WNW 5.4 mph 9.2 mph 49% 0 in 0 W/m2
22:43 63.3 °F 43.9 °F 29.4 in WNW 4.5 mph 11.4 mph 49% 0 in 0 W/m2
22:48 63.3 °F 43.9 °F 29.4 in NW 7.6 mph 11.4 mph 49% 0 in 0 W/m2
22:53 63.1 °F 44.2 °F 29.4 in NNW 6 mph 10.7 mph 50% 0 in 0 W/m2
22:58 63 °F 44.1 °F 29.4 in NNW 7.6 mph 13.6 mph 50% 0 in 0 W/m2
23:03 63 °F 44.6 °F 29.4 in NNW 4.5 mph 13.6 mph 51% 0 in 0 W/m2
23:08 62.6 °F 44.2 °F 29.4 in NW 3.8 mph 10.7 mph 51% 0 in 0 W/m2
23:13 62.4 °F 44.6 °F 29.4 in NW 3.8 mph 10.7 mph 52% 0 in 0 W/m2
23:18 62.1 °F 44.8 °F 29.4 in NW 6.9 mph 10.7 mph 53% 0 in 0 W/m2
23:23 62.1 °F 44.8 °F 29.4 in NNW 3.8 mph 10.7 mph 53% 0 in 0 W/m2
23:28 61.7 °F 44.4 °F 29.4 in NNW 2.2 mph 8.3 mph 53% 0 in 0 W/m2
23:33 61.5 °F 44.2 °F 29.4 in NW 3.1 mph 7.6 mph 53% 0 in 0 W/m2
23:38 61.2 °F 44.4 °F 29.4 in NW 3.1 mph 6 mph 54% 0 in 0 W/m2
23:43 61 °F 44.2 °F 29.4 in NW 3.1 mph 6 mph 54% 0 in 0 W/m2
23:48 60.6 °F 45 °F 29.4 in NNW 4.5 mph 7.6 mph 56% 0 in 0 W/m2
23:53 60.6 °F 45 °F 29.4 in NNW 3.8 mph 7.6 mph 56% 0 in 0 W/m2
23:58 60.4 °F 44.8 °F 29.4 in NW 2.2 mph 7.6 mph 56% 0 in 0 W/m2
Northern Hawkes Bay. New Zealand Historic Data
Compliments of Weather Underground - 2 mb